| time (UTC) | temp F | wind direction | speed MPH | gust MPH | rain 1hr in | rain 24hr in | rain mn in | humidity % | barometer mb |
| 20260509063028 | 67 | 222 | 0.0 | 2.0 | 0.03 | 0.65 | 0.05 | 93 | 1012.6 |
| 20260509061525 | 67 | 317 | 0.0 | 0.0 | 0.03 | 0.64 | 0.04 | 93 | 1012.9 |
| 20260509060029 | 67 | 317 | 0.0 | 2.0 | 0.03 | 0.63 | 0.03 | 93 | 1013.0 |
| 20260509054514 | 67 | 212 | 0.0 | 2.0 | 0.04 | 0.63 | 0.03 | 92 | 1013.1 |
| 20260509053029 | 67 | 359 | 1.0 | 3.0 | 0.04 | 0.62 | 0.02 | 92 | 1013.4 |
| 20260509051524 | 68 | 115 | 0.0 | 2.0 | 0.04 | 0.62 | 0.01 | 92 | 1013.0 |
| 20260509050026 | 68 | 331 | 1.0 | 4.0 | 0.03 | 0.61 | 0.00 | 92 | 1013.5 |
| 20260509044527 | 68 | 235 | 0.0 | 2.0 | 0.03 | 0.60 | 0.60 | 92 | 1013.1 |
| 20260509043035 | 68 | 342 | 0.0 | 2.0 | 0.03 | 0.58 | 0.58 | 92 | 1012.9 |
| 20260509041522 | 68 | 131 | 1.0 | 3.0 | 0.03 | 0.58 | 0.58 | 92 | 1012.0 |
| 20260509040009 | 68 | 98 | 0.0 | 5.0 | 0.04 | 0.58 | 0.58 | 92 | 1011.7 |
| 20260509034509 | 68 | 82 | 0.0 | 7.0 | 0.04 | 0.57 | 0.57 | 92 | 1011.8 |
| 20260509033014 | 68 | 115 | 4.0 | 8.0 | 0.04 | 0.56 | 0.56 | 92 | 1011.4 |
| 20260509031522 | 67 | 136 | 2.0 | 5.0 | 0.04 | 0.55 | 0.55 | 93 | 1012.1 |
| 20260509030005 | 68 | 105 | 0.0 | 3.0 | 0.04 | 0.55 | 0.54 | 93 | 1013.1 |
| 20260509024511 | 68 | 101 | 1.0 | 5.0 | 0.04 | 0.54 | 0.52 | 93 | 1013.0 |
| 20260509023011 | 68 | 113 | 3.0 | 6.0 | 0.04 | 0.52 | 0.52 | 93 | 1013.0 |
| 20260509021518 | 67 | 62 | 2.0 | 6.0 | 0.04 | 0.52 | 0.51 | 93 | 1013.5 |
| 20260509020024 | 67 | 72 | 2.0 | 4.0 | 0.04 | 0.51 | 0.50 | 93 | 1014.3 |
| 20260509014515 | 67 | 127 | 0.0 | 2.0 | 0.04 | 0.50 | 0.49 | 93 | 1014.4 |
| 20260509013012 | 66 | 95 | 1.0 | 2.0 | 0.05 | 0.50 | 0.48 | 93 | 1014.6 |
| 20260509011515 | 66 | 209 | 0.0 | 4.0 | 0.05 | 0.49 | 0.47 | 93 | 1014.9 |
| 20260509010028 | 66 | 68 | 1.0 | 3.0 | 0.05 | 0.48 | 0.46 | 93 | 1014.0 |
| 20260509004523 | 66 | 105 | 0.0 | 2.0 | 0.05 | 0.47 | 0.45 | 93 | 1014.2 |
| 20260509003015 | 66 | 149 | 0.0 | 3.0 | 0.04 | 0.45 | 0.43 | 92 | 1014.1 |
| 20260509001514 | 66 | 108 | 0.0 | 2.0 | 0.05 | 0.45 | 0.42 | 92 | 1013.9 |
| 20260509000019 | 66 | 255 | 0.0 | 0.0 | 0.05 | 0.44 | 0.41 | 92 | 1013.0 |
| 20260508234522 | 67 | 165 | 0.0 | 0.0 | 0.05 | 0.43 | 0.40 | 92 | 1013.3 |
| 20260508233029 | 67 | 306 | 0.0 | 3.0 | 0.05 | 0.42 | 0.39 | 92 | 1013.9 |
| 20260508231516 | 67 | 109 | 1.0 | 3.0 | 0.04 | 0.40 | 0.37 | 92 | 1014.0 |
| 20260508230019 | 67 | 109 | 1.0 | 3.0 | 0.04 | 0.40 | 0.36 | 92 | 1014.3 |
| 20260508224523 | 67 | 172 | 0.0 | 6.0 | 0.04 | 0.39 | 0.35 | 92 | 1014.5 |
| 20260508223027 | 67 | 341 | 1.0 | 6.0 | 0.04 | 0.38 | 0.34 | 92 | 1015.0 |
| 20260508221526 | 67 | 341 | 2.0 | 4.0 | 0.04 | 0.37 | 0.33 | 92 | 1015.4 |
| 20260508220017 | 68 | 359 | 2.0 | 4.0 | 0.04 | 0.37 | 0.32 | 91 | 1015.7 |
| 20260508214526 | 68 | 359 | 2.0 | 5.0 | 0.03 | 0.36 | 0.31 | 91 | 1015.8 |
| 20260508213021 | 69 | 290 | 4.0 | 7.0 | 0.03 | 0.35 | 0.30 | 90 | 1016.0 |
| 20260508211530 | 70 | 2 | 2.0 | 7.0 | 0.03 | 0.34 | 0.29 | 90 | 1015.7 |
| 20260508210024 | 71 | 352 | 1.0 | 3.0 | 0.02 | 0.34 | 0.28 | 90 | 1015.1 |
| 20260508204521 | 71 | 147 | 0.0 | 0.0 | 0.03 | 0.34 | 0.28 | 89 | 1015.0 |
| 20260508203029 | 71 | 147 | 0.0 | 0.0 | 0.03 | 0.34 | 0.27 | 89 | 1014.9 |
| 20260508201528 | 71 | 147 | 0.0 | 2.0 | 0.02 | 0.33 | 0.26 | 89 | 1014.8 |
| 20260508200026 | 70 | 134 | 0.0 | 2.0 | 0.03 | 0.33 | 0.26 | 90 | 1014.7 |
| 20260508194515 | 70 | 85 | 0.0 | 2.0 | 0.02 | 0.33 | 0.25 | 90 | 1014.5 |
| 20260508190014 | 71 | 334 | 6.0 | 10.0 | 0.01 | 0.32 | 0.23 | 87 | 1015.8 |
| 20260508184520 | 71 | 271 | 0.0 | 0.0 | 0.02 | 0.33 | 0.23 | 87 | 1015.2 |
| 20260508183010 | 72 | 53 | 0.0 | 2.0 | 0.01 | 0.33 | 0.22 | 86 | 1015.3 |
| 20260508174515 | 71 | 111 | 0.0 | 4.0 | 0.01 | 0.34 | 0.21 | 85 | 1014.6 |
| 20260508173017 | 71 | 152 | 2.0 | 4.0 | 0.01 | 0.35 | 0.21 | 85 | 1014.6 |
| 20260508171518 | 71 | 111 | 2.0 | 4.0 | 0.02 | 0.35 | 0.21 | 85 | 1014.7 |
| 20260508163016 | 71 | 113 | 1.0 | 4.0 | 0.02 | 0.38 | 0.20 | 87 | 1015.4 |
| 20260508161528 | 70 | 101 | 1.0 | 3.0 | 0.02 | 0.38 | 0.19 | 87 | 1015.6 |
| 20260508160018 | 70 | 58 | 0.0 | 4.0 | 0.02 | 0.40 | 0.19 | 87 | 1015.7 |
| 20260508154509 | 70 | 104 | 0.0 | 3.0 | 0.02 | 0.42 | 0.18 | 88 | 1015.9 |
| 20260508153017 | 69 | 1 | 0.0 | 4.0 | 0.02 | 0.44 | 0.18 | 88 | 1015.9 |
| 20260508151516 | 69 | 114 | 1.0 | 5.0 | 0.02 | 0.47 | 0.17 | 87 | 1015.7 |
| 20260508150021 | 70 | 108 | 0.0 | 4.0 | 0.03 | 0.52 | 0.17 | 88 | 1015.8 |
| 20260508144523 | 69 | 112 | 2.0 | 6.0 | 0.03 | 0.52 | 0.16 | 86 | 1015.8 |
| 20260508143014 | 69 | 118 | 2.0 | 6.0 | 0.05 | 0.52 | 0.16 | 87 | 1015.4 |
| 20260508141516 | 68 | 75 | 2.0 | 7.0 | 0.05 | 0.52 | 0.15 | 88 | 1015.5 |
| 20260508140020 | 67 | 133 | 3.0 | 5.0 | 0.06 | 0.51 | 0.14 | 89 | 1015.8 |
| 20260508134529 | 66 | 110 | 2.0 | 4.0 | 0.06 | 0.50 | 0.13 | 90 | 1016.1 |
| 20260508133021 | 66 | 129 | 0.0 | 3.0 | 0.06 | 0.48 | 0.11 | 90 | 1016.3 |
| 20260508130018 | 65 | 6 | 1.0 | 3.0 | 0.04 | 0.45 | 0.08 | 90 | 1016.7 |
| 20260508124525 | 66 | 339 | 1.0 | 2.0 | 0.03 | 0.44 | 0.07 | 89 | 1016.4 |
| 20260508123020 | 65 | 125 | 0.0 | 5.0 | 0.02 | 0.42 | 0.05 | 90 | 1016.3 |
| 20260508120003 | 65 | 205 | 0.0 | 4.0 | 0.01 | 0.41 | 0.04 | 89 | 1015.9 |
| 20260508114506 | 65 | 153 | 1.0 | 3.0 | 0.01 | 0.41 | 0.04 | 90 | 1015.3 |
| 20260508113008 | 65 | 302 | 0.0 | 3.0 | 0.00 | 0.40 | 0.03 | 90 | 1015.5 |
| 20260508111515 | 65 | 143 | 0.0 | 2.0 | 0.00 | 0.40 | 0.03 | 90 | 1015.1 |
| 20260508110027 | 65 | 179 | 0.0 | 2.0 | 0.00 | 0.40 | 0.03 | 90 | 1015.5 |
| 20260508104504 | 65 | 162 | 0.0 | 2.0 | 0.00 | 0.40 | 0.03 | 90 | 1015.1 |
| 20260508103013 | 65 | 87 | 0.0 | 2.0 | 0.01 | 0.40 | 0.03 | 90 | 1015.1 |
| 20260508101511 | 65 | 331 | 0.0 | 4.0 | 0.01 | 0.40 | 0.03 | 90 | 1014.9 |
| 20260508100013 | 65 | 140 | 1.0 | 2.0 | 0.01 | 0.40 | 0.03 | 90 | 1014.4 |
| 20260508093007 | 65 | 310 | 0.0 | 3.0 | 0.00 | 0.39 | 0.02 | 90 | 1014.3 |
| 20260508091512 | 65 | 125 | 0.0 | 2.0 | 0.00 | 0.39 | 0.02 | 90 | 1014.4 |
| 20260508090012 | 65 | 329 | 0.0 | 2.0 | 0.00 | 0.39 | 0.02 | 91 | 1014.4 |
| 20260508084513 | 66 | 127 | 0.0 | 2.0 | 0.00 | 0.39 | 0.02 | 91 | 1014.1 |
| 20260508083021 | 66 | 115 | 1.0 | 4.0 | 0.01 | 0.39 | 0.02 | 91 | 1014.1 |
| 20260508081508 | 66 | 186 | 0.0 | 3.0 | 0.01 | 0.39 | 0.02 | 91 | 1014.4 |
| 20260508080010 | 66 | 320 | 0.0 | 2.0 | 0.01 | 0.39 | 0.02 | 91 | 1014.4 |
| 20260508074515 | 66 | 205 | 1.0 | 2.0 | 0.01 | 0.39 | 0.02 | 91 | 1014.1 |
| 20260508073020 | 66 | 117 | 0.0 | 2.0 | 0.00 | 0.38 | 0.01 | 91 | 1014.4 |
| 20260508071532 | 66 | 84 | 0.0 | 2.0 | 0.00 | 0.38 | 0.01 | 90 | 1014.5 |
| 20260508070008 | 66 | 313 | 0.0 | 2.0 | 0.00 | 0.38 | 0.01 | 91 | 1014.5 |
| 20260508064512 | 66 | 269 | 0.0 | 2.0 | 0.00 | 0.38 | 0.01 | 91 | 1014.9 |